Retour au catalogue

GEOSKAN-3

ActifScienceSSO
NORAD 64893·PAYLOAD·🇷🇺 Russia
Ce nom de satellite n'a pas encore été confirmé par des sources officielles.

Lancé Jul 25, 2025 depuis Vostochny Cosmodrome

Loading…

Prochains Passages (prochaines 24 heures)

TLE

FraisSource: Space-Track

Époque: Sep 14, 2026, 14:09 UTC

1 64893U 25155T   26257.58997743  .00016526  00000-0  44005-3 0  9998
2 64893  97.4640 228.7470 0004422 195.8065 164.3042 15.38262863 94588

Suivez GEOSKAN-3 en temps réel avec AllMySat

Download on the App Store